EW5198 Weather Reports


Display with metric or nautical units.
time (UTC)temp
F
wind
direction
speed
MPH
gust
MPH
rain 1hr
in
rain 24hr
in
rain mn
in
humidity
%
barometer
mb
20210917223510 64 60 2.0 5.0 0.00 0.00 0.00 72 1015.9
20210917222516 65 64 2.0 4.0 0.00 0.00 0.00 72 1015.8
20210917221516 65 99 2.0 7.0 0.00 0.00 0.00 72 1015.8
20210917220511 65 0 2.0 5.0 0.00 0.00 0.00 72 1015.8
20210917215511 65 83 2.0 4.0 0.00 0.00 0.00 71 1015.9
20210917214509 65 73 2.0 6.0 0.00 0.00 0.00 72 1015.9
20210917213508 65 61 2.0 6.0 0.00 0.00 0.00 72 1015.9
20210917212509 64 53 2.0 5.0 0.00 0.00 0.00 73 1016.0
20210917211509 64 135 2.0 4.0 0.00 0.00 0.00 73 1016.0
20210917210510 64 55 2.0 4.0 0.00 0.00 0.00 72 1016.1
20210917205509 63 239 2.0 7.0 0.00 0.00 0.00 75 1016.1
20210917204509 63 59 2.0 4.0 0.00 0.00 0.00 74 1016.1
20210917203507 63 79 1.0 4.0 0.00 0.00 0.00 75 1016.1
20210917202506 62 69 2.0 5.0 0.00 0.00 0.00 76 1016.1
20210917201507 62 122 2.0 4.0 0.00 0.00 0.00 77 1016.1
20210917200506 62 120 1.0 4.0 0.00 0.00 0.00 77 1016.2
20210917195507 61 0 1.0 3.0 0.00 0.00 0.00 77 1016.1
20210917194509 61 131 1.0 4.0 0.00 0.00 0.00 78 1016.2
20210917193505 60 132 2.0 4.0 0.00 0.00 0.00 79 1016.3
20210917192502 60 96 2.0 4.0 0.00 0.00 0.00 79 1016.3
20210917191502 60 89 2.0 4.0 0.00 0.00 0.00 80 1016.4
20210917190502 59 117 2.0 5.0 0.00 0.00 0.00 81 1016.3
20210917185507 59 133 2.0 4.0 0.00 0.00 0.00 81 1016.3
20210917184502 59 33 1.0 4.0 0.00 0.00 0.00 81 1016.3
20210917183504 59 98 1.0 2.0 0.00 0.00 0.00 82 1016.3
20210917182501 59 99 2.0 4.0 0.00 0.00 0.00 82 1016.3
20210917181500 58 88 1.0 3.0 0.00 0.00 0.00 83 1016.3
20210917180500 58 104 1.0 3.0 0.00 0.00 0.00 83 1016.3
20210917175500 58 64 1.0 3.0 0.00 0.00 0.00 84 1016.2
20210917174502 57 58 1.0 3.0 0.00 0.00 0.00 84 1016.0
20210917173458 57 50 1.0 5.0 0.00 0.00 0.00 85 1016.0
20210917172458 57 54 2.0 5.0 0.00 0.00 0.00 86 1016.0
20210917171458 56 56 1.0 5.0 0.00 0.00 0.00 86 1016.0
20210917170459 56 40 2.0 5.0 0.00 0.00 0.00 87 1016.0
20210917165458 56 51 1.0 2.0 0.00 0.00 0.00 88 1015.9
20210917164458 55 0 1.0 2.0 0.00 0.00 0.00 88 1015.7
20210917163459 55 0 1.0 3.0 0.00 0.00 0.00 88 1015.6
20210917162504 55 0 1.0 3.0 0.00 0.00 0.00 89 1015.6
20210917161457 54 42 1.0 3.0 0.00 0.00 0.00 89 1015.5
20210917160455 54 0 0.0 2.0 0.00 0.00 0.00 89 1015.4
20210917155452 54 121 0.0 2.0 0.00 0.00 0.00 90 1015.4
20210917154453 53 0 0.0 2.0 0.00 0.00 0.00 90 1015.3
20210917153453 53 0 0.0 2.0 0.00 0.00 0.00 90 1015.3
20210917152454 53 0 0.0 0.0 0.00 0.00 0.00 90 1015.2
20210917151453 53 0 0.0 0.0 0.00 0.00 0.00 90 1015.0
20210917150453 53 0 0.0 0.0 0.00 0.00 0.00 90 1014.9
20210917145451 53 0 0.0 2.0 0.00 0.00 0.00 90 1014.7
20210917144451 53 46 1.0 3.0 0.00 0.00 0.00 90 1014.7
20210917143451 53 39 1.0 2.0 0.00 0.00 0.00 90 1014.6
20210917142451 53 0 0.0 2.0 0.00 0.00 0.00 90 1014.4
20210917141448 53 49 1.0 3.0 0.00 0.00 0.00 90 1014.3
20210917140449 53 47 1.0 2.0 0.00 0.00 0.00 90 1014.2
20210917135449 53 45 0.0 2.0 0.00 0.00 0.00 90 1014.0
20210917134447 53 0 0.0 2.0 0.00 0.00 0.00 90 1013.9
20210917133447 53 0 0.0 0.0 0.00 0.00 0.00 90 1013.8
20210917132447 53 0 0.0 2.0 0.00 0.00 0.00 90 1013.7
20210917131447 53 0 0.0 1.0 0.00 0.00 0.00 90 1013.6
20210917130448 53 0 0.0 2.0 0.00 0.00 0.00 90 1013.5
20210917125447 53 38 0.0 2.0 0.00 0.00 0.00 90 1013.5
20210917124446 53 0 0.0 1.0 0.00 0.00 0.00 91 1013.5
20210917123447 53 0 0.0 1.0 0.00 0.00 0.00 91 1013.4
20210917122448 53 0 0.0 1.0 0.00 0.00 0.00 92 1013.3
20210917121447 53 0 0.0 0.0 0.00 0.00 0.00 92 1013.2
20210917120447 53 0 0.0 1.0 0.00 0.00 0.00 92 1013.1
20210917115447 53 0 0.0 1.0 0.00 0.00 0.00 92 1013.0
20210917114448 53 0 0.0 1.0 0.00 0.00 0.00 92 1013.0
20210917113445 53 0 0.0 2.0 0.00 0.00 0.00 93 1013.0
20210917112445 53 46 0.0 2.0 0.00 0.00 0.00 93 1012.9
20210917111445 52 86 1.0 1.0 0.00 0.00 0.00 93 1012.9
20210917110445 52 87 1.0 1.0 0.00 0.00 0.00 93 1012.9
20210917105443 52 87 1.0 1.0 0.00 0.00 0.00 93 1012.9
20210917104442 52 93 1.0 1.0 0.00 0.00 0.00 93 1012.9
20210917103443 52 88 1.0 3.0 0.00 0.00 0.00 93 1012.9
20210917102443 51 85 1.0 3.0 0.00 0.00 0.00 93 1013.0
20210917101443 51 95 1.0 3.0 0.00 0.00 0.00 94 1013.0
20210917100443 51 79 2.0 3.0 0.00 0.00 0.00 94 1013.0
20210917095440 50 83 2.0 4.0 0.00 0.00 0.00 94 1013.0
20210917094441 50 85 2.0 2.0 0.00 0.00 0.00 94 1013.1
20210917093441 49 48 2.0 5.0 0.00 0.00 0.00 94 1013.1
20210917092441 49 48 2.0 2.0 0.00 0.00 0.00 93 1013.1
20210917091441 48 48 2.0 4.0 0.00 0.00 0.00 93 1013.2
20210917090441 48 49 3.0 4.0 0.00 0.00 0.00 93 1013.1
20210917085439 47 45 2.0 4.0 0.00 0.00 0.00 93 1013.1
20210917084439 47 44 2.0 4.0 0.00 0.00 0.00 93 1012.9
20210917083439 47 45 2.0 3.0 0.00 0.00 0.00 93 1012.9
20210917082438 46 47 2.0 4.0 0.00 0.00 0.00 93 1012.9
20210917081439 46 46 2.0 3.0 0.00 0.00 0.00 93 1013.0
20210917080440 46 48 2.0 3.0 0.00 0.00 0.00 92 1013.0
20210917075439 46 47 2.0 3.0 0.00 0.00 0.00 92 1012.7
20210917074440 46 47 2.0 4.0 0.00 0.00 0.00 92 1012.9
20210917073437 46 48 2.0 3.0 0.00 0.00 0.00 92 1012.9
20210917072437 46 42 2.0 3.0 0.00 0.00 0.00 92 1012.8
20210917071435 46 42 2.0 3.0 0.00 0.00 0.00 92 1012.8
20210917070434 46 50 2.0 3.0 0.00 0.00 0.00 92 1012.8
20210917065434 46 40 2.0 3.0 0.00 0.00 0.00 91 1012.8
20210917064435 46 43 2.0 3.0 0.00 0.00 0.00 91 1012.8
20210917063432 46 42 2.0 4.0 0.00 0.00 0.00 91 1012.8
20210917062432 46 44 2.0 4.0 0.00 0.00 0.00 91 1012.8
20210917061432 46 51 2.0 4.0 0.00 0.00 0.00 91 1012.7
20210917060432 46 48 2.0 4.0 0.00 0.00 0.00 90 1012.7
20210917055433 47 49 2.0 4.0 0.00 0.00 0.00 90 1012.6
20210917054430 47 45 2.0 3.0 0.00 0.00 0.00 90 1012.5
20210917053427 47 50 2.0 3.0 0.00 0.00 0.00 90 1012.4
20210917052424 47 47 2.0 4.0 0.00 0.00 0.00 89 1012.4
20210917051424 47 45 2.0 3.0 0.00 0.00 0.00 89 1012.4
20210917050425 48 49 2.0 4.0 0.00 0.00 0.00 89 1012.5
20210917045424 48 45 2.0 4.0 0.00 0.00 0.00 89 1012.4
20210917044424 48 49 2.0 4.0 0.00 0.00 0.00 88 1012.5
20210917043425 49 49 2.0 4.0 0.00 0.00 0.00 88 1012.5
20210917042422 49 49 2.0 4.0 0.00 0.00 0.00 88 1012.5
20210917041422 49 42 2.0 4.0 0.00 0.00 0.00 87 1012.4
20210917040422 50 49 2.0 5.0 0.00 0.00 0.00 87 1012.3
20210917035421 50 49 2.0 4.0 0.00 0.00 0.00 87 1012.3
20210917034422 51 45 2.0 5.0 0.00 0.00 0.00 86 1012.3
20210917033423 51 47 3.0 6.0 0.00 0.00 0.00 85 1012.3
20210917032421 52 44 2.0 6.0 0.00 0.00 0.00 85 1012.2
20210917031419 52 48 2.0 4.0 0.00 0.00 0.00 84 1012.2
20210917030421 53 88 1.0 2.0 0.00 0.00 0.00 83 1012.1
20210917025419 54 83 2.0 3.0 0.00 0.00 0.00 83 1012.0
20210917024420 55 76 2.0 3.0 0.00 0.00 0.00 82 1012.0
20210917023421 56 63 1.0 2.0 0.00 0.00 0.00 81 1011.9
20210917022420 56 35 0.0 1.0 0.00 0.00 0.00 81 1011.8
20210917021420 57 0 0.0 2.0 0.00 0.00 0.00 81 1011.7
20210917020421 57 0 1.0 3.0 0.00 0.00 0.00 80 1011.6
20210917015419 58 52 1.0 2.0 0.00 0.00 0.00 80 1011.6
20210917014418 58 54 1.0 2.0 0.00 0.00 0.00 80 1011.7
20210917013418 58 68 1.0 3.0 0.00 0.00 0.00 79 1011.7
20210917012419 59 57 1.0 4.0 0.00 0.00 0.00 79 1011.7
20210917011419 59 85 1.0 5.0 0.00 0.00 0.00 78 1011.6
20210917010419 59 89 1.0 4.0 0.00 0.00 0.00 78 1011.5
20210917005416 60 94 1.0 3.0 0.00 0.00 0.00 77 1011.5
20210917004417 60 126 2.0 5.0 0.00 0.00 0.00 77 1011.6
20210917003416 60 109 2.0 5.0 0.00 0.00 0.00 77 1011.5
20210917002416 60 91 2.0 5.0 0.00 0.00 0.00 76 1011.5
20210917001418 60 152 2.0 5.0 0.00 0.00 0.00 76 1011.5
20210917000416 61 120 2.0 5.0 0.00 0.00 0.00 75 1011.5
20210916235414 61 144 2.0 4.0 0.00 0.00 0.00 75 1011.5
20210916234418 61 109 2.0 6.0 0.00 0.00 0.00 74 1011.5
20210916233414 62 155 2.0 6.0 0.00 0.00 0.00 73 1011.5
20210916232414 63 123 2.0 5.0 0.00 0.00 0.00 72 1011.4
20210916231415 63 156 2.0 5.0 0.00 0.00 0.00 72 1011.4
20210916230414 64 277 2.0 6.0 0.00 0.00 0.00 70 1011.4
20210916225413 65 74 2.0 6.0 0.00 0.00 0.00 69 1011.4
20210916224409 65 89 2.0 6.0 0.00 0.00 0.00 68 1011.4